Regional Weather Roundup
Issued by NWS

Home | Current Version | Previous Version | Graphics & Text | Print | Product List | Glossary On
Versions: 1 2 3 4 5 6 7 8 9 10 11 12 13 14 15 16 17 18 19 20 21 22 23 24 25 26 27 28 29 30 31 32 33 34 35 36 37 38 39 40 41 42 43 44 45 46 47 48 49
000
ASUS43 KDMX 151107
RWRIA

WEATHER ROUNDUP FOR IOWA
NATIONAL WEATHER SERVICE DES MOINES IA
600 AM CDT MON SEP 15 2014

NOTE: "FAIR" INDICATES FEW OR NO CLOUDS BELOW 12,000 FEET WITH NO
SIGNIFICANT WEATHER AND/OR OBSTRUCTIONS TO VISIBILITY.

* - THESE STATIONS ARE NOT NWS STATIONS...THUS NOT UNDER NWS
QUALITY CONTROL.  THEY ALSO DO NOT REPORT WEATHER SUCH
AS PRECIPITATION OR FOG.

IAZ001>003-012>014-020>022-031>034-043>046-151200-
   NORTHWEST IOWA

CITY           SKY/WX    TMP DP  RH WIND       PRES   REMARKS
CARROLL *      PTCLDY    52  52 100 N9        30.09R
CHEROKEE *     CLOUDY    52  48  87 N13G18    30.14R
DENISON *      CLEAR     52  52 100 N12       30.07R
LE MARS *        N/A     52  48  87 N13G20    30.18R
ORANGE CITY *  DRIZZLE   52  48  87 N9        30.19R
SHELDON *      RAIN      48  48 100 N7        30.18R
SIOUX CITY     CLOUDY    54  46  74 N12       30.15R
SPENCER        LGT RAIN  50  47  89 N12       30.17R
STORM LAKE *   CLOUDY    52  50  93 NE12G22   30.12R
$$

IAZ055>058-069>071-079>083-090>094-151200-
   SOUTHWEST IOWA

CITY           SKY/WX    TMP DP  RH WIND       PRES   REMARKS
ATLANTIC *     CLOUDY    59  57  94 CALM      30.05S
AUDUBON *      MOCLDY    57  55  94 CALM      30.09R
CLARINDA *     CLOUDY    61  57  88 N3        30.06R
COUNCIL BLFS * CLOUDY    59  59 100 NE5       30.05R
CRESTON *      CLOUDY    57  57 100 NE7       30.06S
HARLAN  *      CLOUDY    57  57 100 N5        30.10S
LAMONI         CLOUDY    60  55  83 VRB5      30.05F THUNDER
SHENANDOAH *   CLOUDY    61  59  94 NE6       30.04R
$$

IAZ047>049-059>061-072>074-084-151200-
   CENTRAL IOWA

CITY           SKY/WX    TMP DP  RH WIND       PRES   REMARKS
AMES           MOCLDY    52  51  97 CALM      30.08S
ANKENY *       CLOUDY    57  55  94 CALM      30.07F
CHARITON *     DRIZZLE   59  57  94 E6        30.07S
DES MOINES     CLOUDY    59  56  89 SE6       30.06F
GRINNELL*      LGT RAIN  55  54  94 CALM      30.09S
KNOXVILLE *    LGT RAIN  57  55  94 CALM      30.08R
MARSHALLTOWN   CLEAR     49  47  93 E5        30.08R
PELLA *        CLOUDY    57  55  94 SE5       30.10R
PERRY *        CLOUDY    59  55  88 CALM      30.08R
$$

IAZ004>006-015-016-023>025-035-036-151200-
   NORTH CENTRAL IOWA

CITY           SKY/WX    TMP DP  RH WIND       PRES   REMARKS
ALGONA *       CLOUDY    50  48  93 NE12G17   30.15R
CLARION *        N/A     52  46  82 NE9       30.11R
ESTHERVILLE    LGT RAIN  48  47  96 N8        30.16R
FORT DODGE *     N/A    N/A N/A N/A MISG        N/A
MASON CITY     LGT RAIN  50  49  96 NE6       30.15R
FOREST CITY *  DRIZZLE   50  50 100 N8        30.14S
IOWA FALLS *     N/A     50  48  93 CALM      30.10S
$$

IAZ007>011-017>019-026>030-037>042-050>054-066-151200-
   NORTHEAST IOWA

CITY           SKY/WX    TMP DP  RH WIND       PRES   REMARKS
CEDAR RAPIDS   CLOUDY    54  52  93 S7        30.06F
CHARLES CITY * CLOUDY    50  48  93 NE9       30.13F
CLINTON *      CLOUDY    54  48  82 S3        30.18R
DECORAH *      CLOUDY    50  48  93 NE5       30.13S
DUBUQUE        MOCLDY    51  49  92 S3        30.13S
MONTICELLO *   MOCLDY    54  50  87 E5        30.10F
OELWEIN *      CLOUDY    50  50 100 NE3       30.12S
WATERLOO       MOCLDY    50  48  93 N3        30.10R
$$

IAZ064-065-067-068-078-151200-
   EAST CENTRAL IOWA

CITY           SKY/WX    TMP DP  RH WIND       PRES   REMARKS
DAVENPORT      RAIN      55  50  83 SE8       30.13S
IOWA CITY      CLOUDY    54  53  97 SE6       30.11F
MT. PLEASANT * CLOUDY    55  54  94 CALM      30.10F
MUSCATINE *    DRIZZLE   55  54  94 NE7       30.10F
QUAD CITIES    TSTM      54  52  93 E5        30.15R FOG
$$

IAZ062-063-075>077-085>089-095>099-151200-
   SOUTHEAST IOWA

CITY           SKY/WX    TMP DP  RH WIND       PRES   REMARKS
BURLINGTON     CLOUDY    59  55  87 CALM      30.13R
FAIRFIELD *    CLOUDY    57  54  88 CALM      30.10S
FORT MADISON * CLOUDY    59  54  82 SE3       30.13R
KEOKUK *       CLOUDY    59  54  82 N3        30.11S
OSKALOOSA *    RAIN      55  55 100 S5        30.09F
CENTERVILLE *  CLOUDY    57  57 100 E6        30.08F
OTTUMWA        TSTM      57  55  93 SE13      30.05F
WASHINGTON *   CLOUDY    55  55 100 NW3       30.13R
$$

ABBREVIATIONS USED IN REMARKS
   TC - TEMPERATURES IN CELSIUS
  WCI - WIND CHILL INDEX
   HX - HEAT INDEX
  VSB - VISIBILITY
$$



USA.gov is the U.S. government's official web portal to all federal, state and local government web resources and services.